Torna al catalogo

COSMOS 1691 DEB

AttivoPO
NORAD 16272·DEBRIS·🇷🇺 Russia

Lanciato Oct 9, 1985 da Plesetsk Cosmodrome

Loading…

Prossimi Passaggi (prossime 24 ore)

TLE

AggiornatoSource: Space-Track

Epoca: Sep 13, 2026, 12:31 UTC

1 16272U 85094R   26256.52197794  .00000196  00000-0  86320-3 0  9997
2 16272  82.6125  79.0606 0041230 111.8064 306.4685 12.75335233899274

Traccia COSMOS 1691 DEB in tempo reale con AllMySat

Download on the App Store